Tracking 19969 objects as of 12-Nov-2019
Live streaming from Space Station
objects crossing your sky now
Track the group of recently launched Starlink satellites

BREEZE-M DEB (TANK)

Track BREEZE-M DEB (TANK) now!


NORAD ID: 33597
Int'l Code: 2009-007C
Perigee: 192.0 km
Apogee: 32,851.5 km
Inclination: 44.8 °
Period: 574.5 minutes
Semi major axis: 22892 km
RCS: 4.8079 m2 (large)
Launch date: February 11, 2009
Source: Commonwealth of Independent States (former USSR) (CIS)
Launch site: TYURATAM MISSILE AND SPACE COMPLEX (TTMTR)

Note: This is SATELLITE DEBRIS
aabbcc
Your satellite tracking list
Your tracking list is empty




NASA's NSSDC Master Catalog

Two Line Element Set (TLE):
1 33597U 09007C   19315.34952179  .00060304  12354-5  28040-2 0  9991
2 33597  44.7606  69.1968 7133153 154.0246 274.0000  2.50643288 90190
Source of the keplerian elements: AFSPC